[[{"header":{"parameterUnit":"m.s-1","parameterCategory":1,"la1":30.2991,"la2":30.254,"lo1":-89.0895,"lo2":-89.0444,"dy":0.0017,"dx":0.0017,"nx":28,"ny":28,"refTime":"2023-09-12T03:00:00:Z","depth":0,"parameterNumber":2,"parameterNumberName":"U-component_of_WINDS"},"data":[0,0,0,0,0,0,0,0,0,0,0,0,0,0,0,0,0,0,0,0,0,0,0,0,0,0,0,0,0,0,0,0,0,0,0,0,0,0,0,0,0,0,0,0,0,0,0,0,0,0,0,0,0,0,0,0,0,0,2.8865,2.8867,0,2.9052,2.9054,2.9056,2.9123,2.9122,2.9122,2.9121,2.9319,2.9325,2.9331,0,0,0,0,0,0,0,0,0,0,0,0,0,2.8576,2.858,2.8865,2.8868,2.887,2.9052,2.9054,2.9057,2.9123,2.9122,2.9122,2.9121,2.9317,2.9324,2.9331,0,0,0,0,0,0,0,0,0,0,0,0,0,2.8726,2.8582,2.8865,2.8925,2.8932,2.9051,2.9054,2.9057,2.9123,2.9122,2.9121,2.912,2.9315,2.9323,2.9332,2.9407,0,0,2.9359,2.9363,0,0,0,0,0,0,0,0,2.8717,2.8736,2.8914,2.8921,2.8929,2.9063,2.9025,2.9175,2.9124,2.9051,2.9121,2.912,2.9235,2.925,2.9288,2.9416,2.9425,2.936,2.9365,2.9369,2.9372,0,0,0,0,0,0,0,2.8707,2.8729,2.8939,2.8916,2.8926,2.8945,2.8966,2.9054,2.9147,2.9057,2.9062,2.9083,2.9239,2.9279,2.9293,2.9428,2.936,2.9368,2.9373,2.9376,2.9633,2.9634,0,0,0,0,0,0,2.8685,2.872,2.8933,2.8945,2.8818,2.8951,2.8974,2.9021,2.9146,2.9164,2.9084,2.9086,2.9265,2.9283,2.93,2.9399,2.9369,2.9377,2.9382,2.9631,2.9633,2.9635,0,0,0,0,0,0,2.8679,2.8704,2.8926,2.8834,2.8864,2.8957,2.901,2.9025,2.9065,2.9166,2.9184,2.9107,2.9264,2.9288,2.9381,2.9407,2.9381,2.9389,2.9629,2.9632,2.9634,2.9595,0,0,0,0,0,0,2.867,2.8701,2.8728,2.8834,2.8868,2.9,2.9012,2.903,2.908,2.9084,2.9192,2.921,2.9265,2.9367,2.9389,2.9418,2.9396,2.9627,2.963,2.9633,2.9594,2.9596,2.9597,0,0,0,0,0,2.8659,2.871,2.8729,2.8754,2.8904,2.9001,2.9021,2.9083,2.9081,2.9111,2.9177,2.9206,2.94,2.9376,2.9402,2.9434,2.9626,2.963,2.9633,2.9594,2.9595,2.9597,0,0,0,0,0,0,2.8606,2.8725,2.8747,2.8833,2.8906,2.9012,2.9051,2.9082,2.9159,2.9159,2.9235,2.9259,2.9347,2.94,2.9371,2.9516,2.9515,2.9524,2.9477,2.9479,2.948,2.9466,2.9404,0,0,0,0,0,2.8604,2.8671,2.8772,2.8839,2.8874,2.8956,2.9001,2.9042,2.9122,2.9154,2.9226,2.9305,2.9385,2.9435,2.9513,2.9603,2.963,2.9638,2.9639,2.964,2.9647,2.9702,2.9708,2.9646,2.9646,2.9645,0,0,2.8601,2.8674,2.8712,2.883,2.8891,2.8962,2.8982,2.9055,2.9109,2.9166,2.9258,2.9314,2.9408,2.95,2.9544,2.9547,2.967,2.9644,2.9644,2.965,2.9706,2.9712,2.9717,2.9648,2.9647,2.9647,0,0,2.8631,2.8692,2.8755,2.8817,2.891,2.8965,2.898,2.9083,2.9122,2.9215,2.926,2.9328,2.9461,2.9527,2.9578,2.9637,2.9669,2.9661,2.9667,2.972,2.9725,2.973,2.9753,2.976,2.9667,2.9667,2.9667,0,2.8616,2.8722,2.8785,2.8856,2.8908,2.8962,2.9029,2.9087,2.9201,2.9237,2.9238,2.941,2.9476,2.9586,2.9601,2.964,2.9662,2.9648,2.9718,2.9724,2.9729,2.9753,2.9761,2.9666,2.9666,2.9666,2.9666,0,2.87,2.8773,2.8813,2.8921,2.8978,2.9047,2.9123,2.9174,2.9212,2.9267,2.9364,2.9446,2.9543,2.9573,2.961,2.969,2.9689,2.9703,2.9705,2.9733,2.9756,2.9765,2.9664,2.9664,2.9665,2.9665,0,0,2.87,2.8844,2.8858,2.8909,2.9017,2.9076,2.9149,2.9243,2.9286,2.9365,2.943,2.9544,2.9559,2.9617,2.9663,2.9709,2.9754,2.9719,2.9722,2.9724,2.985,2.9839,2.9848,2.9776,2.9778,2.9779,2.9843,0,2.8746,2.8876,2.8936,2.9041,2.9111,2.9165,2.923,2.9305,2.936,2.9431,2.9493,2.9573,2.9586,2.9621,2.9669,2.9738,2.9781,2.9734,2.984,2.9843,2.9815,2.986,2.9848,2.9904,2.9852,2.9854,2.9855,0,2.8816,2.8893,2.9004,2.9107,2.9139,2.9195,2.9287,2.9353,2.9441,2.9479,2.9544,2.9589,2.9672,2.9668,2.9786,2.9753,2.9801,2.9841,2.9845,2.9858,2.9851,2.9875,2.9923,2.9931,2.987,2.9869,2.9868,0,2.8807,2.8939,2.9023,2.9065,2.9186,2.9225,2.9278,2.9365,2.9419,2.9501,2.9537,2.9629,2.9679,2.9751,2.982,2.981,2.9933,2.9934,2.9969,2.9967,2.9992,2.9989,3.0049,3.0021,3.0021,3.002,3.002,0,2.8852,2.8918,2.9021,2.9073,2.915,2.9221,2.9297,2.9354,2.9432,2.9499,2.9552,2.9615,2.9702,2.9777,2.9833,2.9923,2.9946,2.9981,2.9995,2.9976,2.9972,3.0008,3.0007,3.0023,3.0022,3.0022,3.0021,0,2.8855,2.8926,2.9021,2.9129,2.9158,2.921,2.9304,2.9359,2.9417,2.9501,2.9526,2.9619,2.971,2.9786,2.9906,2.9944,3.0039,3.0055,3.0008,3.0015,3.0047,3.0043,3.0132,3.0149,3.0108,3.0109,3.0109,0,2.8879,2.8931,2.9044,2.9092,2.9144,2.9219,2.9274,2.9348,2.9404,2.951,2.9553,2.9647,2.9726,2.987,2.995,3.0043,3.0063,3.0088,3.0078,3.0058,3.0066,3.0062,3.0069,3.0089,3.0089,3.0089,3.0089,0,2.8915,2.8948,2.9024,2.9113,2.9176,2.9251,2.9327,2.9363,2.9452,2.9513,2.9605,2.9666,2.9789,2.9883,2.9986,3.0045,3.0083,3.0092,3.0105,3.0087,3.0058,3.0076,3.0011,3.0089,3.0089,3.0089,3.0089,3.0089,2.8931,2.8981,2.9068,2.9152,2.9217,2.9287,2.9344,2.9411,2.9488,2.9592,2.9632,2.9727,2.9819,2.996,3.0019,3.0098,3.0103,3.0122,3.0127,3.0131,3.0129,3.0045,3.0117,3.0117,3.0117,3.0117,3.0117,0,2.8971,2.9031,2.9107,2.9211,2.9278,2.9306,2.9393,2.9448,2.953,2.9611,2.9688,2.9797,2.9889,2.9978,3.0076,3.0122,3.0142,3.0145,3.0143,3.0156,3.0117,3.0096,3.0127,3.0127,3.0127,3.0127,3.0127,3.0127,2.9,2.9086,2.913,2.9252,2.9312,2.9404,2.9452,2.9518,2.9584,2.9701,2.9778,2.9834,2.992,3.0025,3.0113,3.0137,3.0171,3.017,3.0199,3.0161,3.0159,3.0157,3.0138,3.0177,3.0177,3.0232,3.0232,3.0233]},{"header":{"parameterUnit":"m.s-1","parameterCategory":1,"la1":30.2991,"la2":30.254,"lo1":-89.0895,"lo2":-89.0444,"dy":0.0017,"dx":0.0017,"nx":28,"ny":28,"refTime":"2023-09-12T03:00:00:Z","depth":0,"parameterNumber":3,"parameterNumberName":"V-component_of_WINDS"},"data":[0,0,0,0,0,0,0,0,0,0,0,0,0,0,0,0,0,0,0,0,0,0,0,0,0,0,0,0,0,0,0,0,0,0,0,0,0,0,0,0,0,0,0,0,0,0,0,0,0,0,0,0,0,0,0,0,0,0,-1.2274,-1.2273,0,-1.2198,-1.2197,-1.2197,-1.2162,-1.2162,-1.2162,-1.2162,-1.2083,-1.2081,-1.2079,0,0,0,0,0,0,0,0,0,0,0,0,0,-1.2386,-1.2384,-1.2274,-1.2273,-1.2272,-1.2198,-1.2197,-1.2196,-1.2162,-1.2162,-1.2162,-1.2162,-1.2084,-1.2082,-1.2079,0,0,0,0,0,0,0,0,0,0,0,0,0,-1.2326,-1.2383,-1.2274,-1.2246,-1.2243,-1.2199,-1.2197,-1.2196,-1.2162,-1.2162,-1.2162,-1.2162,-1.2085,-1.2082,-1.2079,-1.2056,0,0,-1.2069,-1.2067,0,0,0,0,0,0,0,0,-1.233,-1.2322,-1.2251,-1.2248,-1.2244,-1.219,-1.2208,-1.2149,-1.2162,-1.2193,-1.2162,-1.2162,-1.2119,-1.2113,-1.2098,-1.2052,-1.2049,-1.2068,-1.2066,-1.2065,-1.2064,0,0,0,0,0,0,0,-1.2334,-1.2325,-1.2244,-1.225,-1.2246,-1.2236,-1.2228,-1.2197,-1.2156,-1.219,-1.2187,-1.2179,-1.2117,-1.2101,-1.2096,-1.2048,-1.2068,-1.2066,-1.2064,-1.2062,-1.1977,-1.1977,0,0,0,0,0,0,-1.2343,-1.2329,-1.2246,-1.2242,-1.2288,-1.2234,-1.2225,-1.2207,-1.2156,-1.2149,-1.2179,-1.2178,-1.2107,-1.21,-1.2093,-1.2062,-1.2065,-1.2062,-1.206,-1.1977,-1.1977,-1.1976,0,0,0,0,0,0,-1.2345,-1.2336,-1.2249,-1.2285,-1.2273,-1.2232,-1.2212,-1.2206,-1.219,-1.2148,-1.214,-1.2171,-1.2107,-1.2098,-1.2065,-1.2058,-1.206,-1.2058,-1.1978,-1.1977,-1.1977,-1.2,0,0,0,0,0,0,-1.2349,-1.2337,-1.2329,-1.2285,-1.2271,-1.2224,-1.2212,-1.2204,-1.2185,-1.2182,-1.2138,-1.2131,-1.2106,-1.207,-1.2062,-1.2054,-1.2055,-1.1978,-1.1977,-1.1977,-1.1999,-1.2,-1.2001,0,0,0,0,0,-1.2353,-1.2339,-1.2329,-1.2319,-1.226,-1.2224,-1.2216,-1.2188,-1.2185,-1.2175,-1.2148,-1.2132,-1.2061,-1.2067,-1.2057,-1.2049,-1.1978,-1.1978,-1.1977,-1.1999,-1.2,-1.2001,0,0,0,0,0,0,-1.2383,-1.2333,-1.2321,-1.2292,-1.2262,-1.2218,-1.2206,-1.219,-1.216,-1.2159,-1.2125,-1.2115,-1.2085,-1.2064,-1.2072,-1.2023,-1.2018,-1.2015,-1.2038,-1.2038,-1.2039,-1.2045,-1.2052,0,0,0,0,0,-1.2387,-1.2362,-1.2318,-1.2297,-1.2283,-1.2247,-1.223,-1.2211,-1.2178,-1.2165,-1.2135,-1.2104,-1.2074,-1.2055,-1.2025,-1.1996,-1.1984,-1.1985,-1.1985,-1.1986,-1.1984,-1.1964,-1.1963,-1.1974,-1.1974,-1.1974,0,0,-1.2393,-1.2363,-1.2349,-1.2302,-1.2277,-1.2251,-1.2237,-1.221,-1.219,-1.2161,-1.2128,-1.2105,-1.2067,-1.2036,-1.202,-1.2017,-1.1978,-1.1985,-1.1986,-1.1984,-1.1964,-1.1963,-1.1962,-1.1974,-1.1974,-1.1974,0,0,-1.2392,-1.2367,-1.2345,-1.232,-1.2282,-1.2258,-1.2252,-1.221,-1.2193,-1.2159,-1.2137,-1.2112,-1.2062,-1.2035,-1.2015,-1.2001,-1.1985,-1.1992,-1.1996,-1.1977,-1.1976,-1.1975,-1.1968,-1.1966,-1.199,-1.199,-1.199,0,-1.2405,-1.2366,-1.2336,-1.231,-1.229,-1.2262,-1.2239,-1.2216,-1.217,-1.2156,-1.2152,-1.2087,-1.206,-1.2021,-1.2017,-1.2002,-1.1994,-1.1997,-1.1978,-1.1977,-1.1976,-1.1969,-1.1967,-1.1991,-1.1991,-1.1991,-1.1991,0,-1.2383,-1.2355,-1.2342,-1.2298,-1.2276,-1.2252,-1.2218,-1.2198,-1.2181,-1.2156,-1.2121,-1.2087,-1.2049,-1.2038,-1.2021,-1.1995,-1.1994,-1.1985,-1.198,-1.1976,-1.1969,-1.1966,-1.1993,-1.1992,-1.1992,-1.1992,0,0,-1.2399,-1.2338,-1.2334,-1.2312,-1.2267,-1.2245,-1.2218,-1.2181,-1.2165,-1.2133,-1.2109,-1.2066,-1.2056,-1.2034,-1.2013,-1.1996,-1.1985,-1.1989,-1.1987,-1.1988,-1.1952,-1.1958,-1.1956,-1.1974,-1.1973,-1.1973,-1.1954,0,-1.2391,-1.2343,-1.2315,-1.2278,-1.2251,-1.2224,-1.22,-1.2169,-1.2145,-1.2118,-1.2091,-1.206,-1.2051,-1.2037,-1.2019,-1.199,-1.1977,-1.1991,-1.1949,-1.1948,-1.1959,-1.1952,-1.196,-1.1944,-1.1952,-1.1951,-1.1951,0,-1.2375,-1.2344,-1.2304,-1.226,-1.2248,-1.2227,-1.219,-1.2165,-1.2128,-1.2111,-1.2085,-1.2063,-1.2032,-1.2029,-1.1984,-1.1995,-1.1976,-1.1958,-1.1957,-1.1951,-1.1949,-1.1945,-1.1939,-1.1936,-1.1946,-1.1947,-1.1947,0,-1.239,-1.2338,-1.2307,-1.2289,-1.2238,-1.2223,-1.2201,-1.2164,-1.2143,-1.2109,-1.2095,-1.2058,-1.2038,-1.2009,-1.1978,-1.1979,-1.1935,-1.193,-1.1919,-1.192,-1.1911,-1.1912,-1.19,-1.1901,-1.1901,-1.1901,-1.1901,0,-1.2383,-1.2359,-1.2312,-1.2293,-1.2265,-1.2232,-1.2205,-1.218,-1.2147,-1.2121,-1.2095,-1.2072,-1.2032,-1.2002,-1.1977,-1.1943,-1.1934,-1.1919,-1.1912,-1.1921,-1.1922,-1.1907,-1.1907,-1.19,-1.19,-1.1901,-1.1901,0,-1.2395,-1.2362,-1.2326,-1.228,-1.2267,-1.2249,-1.2208,-1.2187,-1.2161,-1.2128,-1.2119,-1.2077,-1.2041,-1.2007,-1.1959,-1.1941,-1.1906,-1.1899,-1.1919,-1.1915,-1.1906,-1.1906,-1.1883,-1.1877,-1.1883,-1.1883,-1.1883,0,-1.2392,-1.2373,-1.2324,-1.2305,-1.2283,-1.2253,-1.2231,-1.2197,-1.2174,-1.2129,-1.2114,-1.2076,-1.2043,-1.1986,-1.1951,-1.1913,-1.1903,-1.1897,-1.1897,-1.1905,-1.1901,-1.1902,-1.1899,-1.1898,-1.1898,-1.1898,-1.1898,0,-1.2391,-1.2375,-1.2345,-1.2308,-1.2282,-1.2251,-1.2219,-1.2205,-1.2164,-1.214,-1.2103,-1.2077,-1.2027,-1.1989,-1.1946,-1.1921,-1.1902,-1.1898,-1.1893,-1.1902,-1.1914,-1.1905,-1.192,-1.1899,-1.1899,-1.1899,-1.1899,-1.1899,-1.2394,-1.2375,-1.2337,-1.2303,-1.2276,-1.2246,-1.2224,-1.2194,-1.2163,-1.212,-1.2101,-1.2063,-1.2023,-1.1964,-1.1939,-1.1907,-1.1903,-1.1897,-1.1895,-1.1893,-1.1894,-1.1919,-1.19,-1.1899,-1.1899,-1.1899,-1.1899,0,-1.239,-1.2364,-1.2333,-1.2289,-1.2262,-1.2247,-1.221,-1.2187,-1.2154,-1.212,-1.2088,-1.2043,-1.2005,-1.1966,-1.1925,-1.1907,-1.1897,-1.1898,-1.1898,-1.1892,-1.1901,-1.1909,-1.1906,-1.1906,-1.1906,-1.1906,-1.1906,-1.1906,-1.2385,-1.2352,-1.2331,-1.2283,-1.2256,-1.2219,-1.2199,-1.217,-1.2142,-1.2094,-1.2062,-1.2037,-1.2,-1.1956,-1.1919,-1.1908,-1.1894,-1.1896,-1.1883,-1.1892,-1.1892,-1.1892,-1.1898,-1.1894,-1.1894,-1.1876,-1.1876,-1.1876]}]]